Tracking 18796 objects as of 19-September-2017
HD Live streaming from Space Station
objects crossing your sky now

KANOPUS-V-IK

Track KANOPUS-V-IK now!
10-day predictions


NORAD ID: 42825
Int'l Code: 2017-042A
Perigee: 513.6 km
Apogee: 515.8 km
Inclination: 97.4 °
Period: 94.8 minutes
Semi major axis: 6885 km
RCS: Unknown
Launch date: July 14, 2017
Source: Commonwealth of Independent States (former USSR) (CIS)
Launch site: TYURATAM MISSILE AND SPACE COMPLEX (TTMTR)
aabbcc
Your satellite tracking list
Your tracking list is empty





NASA's NSSDC Master Catalog

Two Line Element Set (TLE):
1 42825U 17042A   17262.18019815  .00000392  00000-0  21686-4 0  9997
2 42825  97.4306 170.6876 0001563 128.5627 231.5747 15.19432024 10161
Source of the keplerian elements: AFSPC